Location: Calvatone
(45.1167°N, 10.4333°E)
Time: 13:09:05
(UTC+00:00)

BREEZE-M DEB (TANK) - Pass Details

Date: 28 January 2023
Orbit: 427 x 13836 km, 45.9° (Epoch: 25 March)

Event Time Altitude Azimuth Distance (km) Brightness Sun altitude
Rises 17:52:37 0° 268° (W) 2,427 7.4 -16.4°
Reaches altitude 10° 17:54:09 10° 269° (W) 1,684 6.1 -16.7°
Maximum altitude 17:57:22 81° 358° (N) 720 2.8 -17.3°
Enters shadow 18:00:37 27° 83° (E) 1,888 4.4 -17.8°
